Wind_Speed
28 28 29 29 29 28 28 28 27 26 25 25 25 26 26 26 26 28 29 31 33 35 36 37 38 40 41 43 44 45 47 48 49 50 51 51 52 53 54 55 55 55 55 55 54 53 52 51 49 47 45 42 39 37 34 31 28 26 23 21 19 18 16 15 14 14 14 14 14 14 14 14 14 14
27 27 27 27 26 25 24 25 25 24 24 24 24 24 25 25 25 26 27 28 30 31 32 34 35 37 38 39 41 42 44 45 46 47 47 48 48 49 50 52 52 53 53 54 54 54 54 53 52 51 50 49 47 46 44 41 39 36 34 31 28 26 23 21 19 18 17 16 15 15 15 14 14 14
24 24 24 23 22 22 21 22 23 22 21 21 21 21 21 22 23 24 24 25 27 28 30 31 32 33 34 36 37 38 40 41 42 43 44 45 45 46 47 48 48 49 50 50 51 52 52 52 52 51 51 50 49 49 48 47 46 44 43 41 38 36 33 31 29 27 25 23 22 21 20 20 19 19
19 18 18 18 18 18 19 20 21 21 20 20 19 18 18 19 20 21 22 23 24 26 28 29 30 31 31 32 33 34 35 36 37 38 39 40 41 42 43 44 45 45 46 46 46 47 48 49 49 49 49 49 49 48 48 47 47 46 46 45 44 43 41 39 38 36 34 33 31 30 30 29 29 29
12 12 12 14 15 16 17 17 18 19 19 18 18 18 17 18 18 19 20 20 21 22 23 25 26 27 28 29 29 30 31 32 33 34 35 35 36 37 38 39 40 41 41 41 42 43 43 44 44 45 45 46 46 46 46 46 46 45 45 45 44 44 44 43 42 41 40 39 37 37 36 36 36 36
10 9 10 11 14 15 14 14 15 16 17 16 16 17 17 17 17 17 17 17 18 19 20 21 22 23 24 25 26 27 28 28 29 30 31 32 32 33 33 34 35 36 36 37 37 38 39 39 39 40 41 41 42 42 43 43 44 44 44 43 43 43 42 42 42 41 41 41 40 40 39 39 39 39
10 10 10 10 11 11 12 12 12 13 13 14 14 15 15 15 15 15 15 15 16 17 18 19 20 20 22 22 23 24 25 25 26 26 27 28 29 29 30 30 31 31 32 32 33 34 34 34 35 35 36 36 37 37 38 38 39 40 40 40 40 40 40 40 39 39 39 38 38 38 37 37 37 37
10 10 9 9 8 7 8 8 8 9 9 9 10 11 12 13 13 13 13 13 14 14 15 16 16 17 18 19 20 21 22 23 23 24 24 25 25 26 27 27 27 27 28 29 29 30 30 30 30 31 31 31 32 32 33 33 34 35 35 36 36 37 37 37 37 36 36 35 35 34 33 33 33 33
9 8 8 8 7 7 7 7 6 6 6 6 7 8 9 9 10 10 10 10 11 11 12 12 13 14 15 16 17 17 18 19 20 21 21 22 22 23 23 24 24 24 25 25 26 26 26 26 26 27 27 27 27 28 28 28 29 29 30 30 31 32 32 32 33 33 33 33 32 31 31 30 29 29
8 8 9 9 8 8 8 8 7 6 4 4 5 6 6 7 7 7 7 7 8 8 9 9 10 11 12 13 13 14 15 16 16 17 18 18 19 19 20 20 21 21 22 22 23 23 23 23 23 24 24 23 23 23 24 24 24 25 25 25 26 26 27 27 27 28 28 28 28 28 27 27 26 25
6 8 9 9 9 9 10 9 9 7 6 4 2 2 3 3 3 3 3 4 5 5 6 6 7 8 9 10 11 12 12 13 14 14 15 15 16 16 17 17 18 19 19 19 20 20 20 20 20 20 21 21 21 20 20 20 20 20 21 21 21 22 22 22 22 23 23 23 24 24 23 23 22 22
4 5 6 6 7 7 8 8 9 8 7 6 4 3 2 2 2 2 2 2 3 3 3 4 5 5 6 7 8 9 10 11 12 12 13 13 14 14 15 15 15 16 16 17 17 17 17 17 17 17 18 18 18 18 17 17 17 17 17 17 17 17 17 17 18 18 18 18 19 19 19 19 19 19
2 1 1 3 4 5 5 6 6 7 8 8 7 6 5 5 5 5 5 6 5 5 5 5 4 5 5 6 7 8 8 9 10 11 12 13 13 14 14 14 15 15 15 15 15 15 15 15 15 15 15 16 15 15 15 15 15 15 15 14 14 14 13 13 13 13 13 13 13 14 15 15 15 15
4 3 1 1 2 3 3 3 4 6 7 7 7 7 7 7 7 7 8 8 8 8 8 9 8 8 8 8 8 9 9 10 10 11 12 13 13 14 14 14 15 15 15 15 14 14 14 13 13 13 14 14 14 14 14 13 13 13 12 12 12 12 11 11 10 10 9 8 9 9 9 10 10 10
7 6 3 2 2 3 3 3 3 5 5 6 7 7 7 7 8 9 10 10 11 11 11 12 12 12 12 12 12 12 12 13 13 13 14 15 15 16 15 15 15 16 16 16 15 14 14 14 13 13 13 13 13 13 13 13 13 12 11 10 10 10 9 9 9 8 8 7 6 5 5 5 5 6
12 10 8 6 4 4 4 4 4 4 5 5 6 6 7 8 9 9 10 11 12 13 14 14 14 14 15 15 15 15 15 15 15 15 15 16 17 18 19 19 18 17 17 17 17 16 15 15 15 14 13 13 13 13 13 13 13 12 12 11 10 9 8 8 8 8 7 7 6 6 4 3 2 2
18 16 13 12 10 8 7 6 6 6 6 6 6 7 8 8 9 9 9 10 11 12 14 15 15 15 15 16 16 16 16 17 16 16 17 17 18 19 20 21 21 19 18 17 18 18 18 17 16 16 16 15 14 14 14 14 13 13 12 11 11 10 9 9 8 8 8 8 7 7 7 6 5 5
22 20 18 16 15 13 11 9 9 8 8 7 7 8 9 10 10 9 10 11 12 13 14 15 16 16 16 16 17 17 17 17 16 17 17 18 18 19 19 20 21 21 19 18 17 18 18 18 18 17 17 17 16 15 14 14 14 14 13 13 12 12 11 11 10 10 9 9 9 9 9 8 8 8
25 24 22 20 20 18 16 14 13 13 11 10 10 10 10 11 12 12 12 12 13 14 14 15 16 18 18 18 18 18 17 17 16 16 16 17 17 17 18 19 20 20 20 19 17 16 16 17 17 17 17 17 17 17 16 15 14 14 14 14 13 13 13 12 12 12 12 12 11 11 11 11 11 12
29 28 27 25 24 22 20 18 17 17 16 14 13 13 12 13 14 15 15 15 16 16 16 16 17 18 19 20 20 20 18 17 16 16 16 16 14 14 15 17 19 20 19 19 19 17 16 15 15 16 17 16 16 17 17 15 14 14 14 14 14 14 14 13 14 14 14 14 14 14 14 12 12 15
33 33 31 30 29 27 25 23 21 20 20 19 18 17 16 17 17 17 18 19 19 19 18 18 18 19 20 21 23 23 21 19 18 17 17 16 14 13 13 14 16 18 19 19 19 19 18 16 15 15 16 17 16 17 17 16 15 15 15 16 16 15 15 16 16 17 17 17 16 16 16 14 14 17
38 37 36 35 34 32 30 28 26 25 24 22 21 20 20 20 19 20 21 22 22 22 22 21 21 21 22 23 23 23 23 23 22 21 19 17 15 14 13 12 14 16 18 18 18 18 19 18 17 16 16 17 17 17 17 17 17 17 17 17 17 18 18 19 20 21 21 21 21 19 19 18 18 19
42 42 42 41 39 37 36 33 31 30 28 25 24 23 22 21 21 21 22 23 24 24 24 24 24 24 25 25 24 24 24 25 25 24 22 19 17 16 16 14 14 16 19 19 18 19 20 20 20 19 17 17 18 18 18 18 18 18 18 19 19 19 20 21 22 23 23 23 23 23 22 22 21 21
47 48 47 46 43 41 40 38 35 34 32 29 27 26 25 24 23 23 23 24 25 25 26 26 26 27 28 27 27 27 27 27 27 27 25 23 21 20 19 18 18 19 21 22 22 22 23 23 24 24 23 21 21 21 21 21 20 20 20 21 21 22 22 22 23 24 24 24 24 24 25 24 24 24
52 52 50 48 47 45 44 43 41 39 35 33 31 31 29 28 27 27 27 27 27 28 29 30 31 31 31 30 30 30 30 30 30 29 28 28 27 26 24 24 23 23 24 26 27 27 26 27 27 28 28 28 27 26 25 25 25 25 26 26 26 27 27 28 28 28 27 27 26 27 27 27 27 27
52 53 52 51 49 48 47 47 46 44 40 37 35 35 34 33 33 33 32 32 32 33 34 35 36 36 35 35 35 35 34 33 32 31 30 30 30 30 29 28 27 27 29 31 32 31 31 31 32 32 33 32 32 31 30 30 30 31 32 32 32 32 33 33 33 34 34 33 33 32 32 32 31 31
50 52 54 54 52 50 50 50 49 47 44 42 40 39 38 37 37 37 37 37 37 38 39 40 40 39 39 39 40 40 39 39 37 36 35 33 34 35 34 33 32 33 34 36 37 37 37 37 38 38 38 38 37 37 36 35 34 35 36 36 36 37 38 38 38 38 38 39 39 39 39 39 39 38
48 50 53 54 54 53 53 53 52 50 48 46 44 43 42 42 41 41 41 41 42 43 43 43 43 42 42 43 43 43 43 44 43 43 42 41 41 42 42 41 40 39 39 39 40 41 41 42 43 43 43 43 43 42 41 40 40 40 41 40 40 40 41 42 42 42 43 43 43 44 45 45 45 45
48 50 52 53 52 52 52 54 55 55 53 51 49 48 47 47 45 45 45 46 47 48 49 48 48 48 48 48 48 47 47 47 47 48 48 48 48 48 47 47 46 46 46 46 46 46 46 46 47 48 49 48 47 46 46 46 46 45 45 45 44 44 44 45 46 47 48 49 48 48 49 49 49 50
53 55 55 55 55 54 53 54 57 58 57 56 55 54 53 51 50 49 50 51 52 54 54 54 54 54 54 54 54 54 53 52 52 52 52 53 53 53 52 52 52 52 52 51 51 52 53 53 54 54 54 54 53 52 52 52 50 49 49 49 49 49 49 49 50 52 53 53 53 53 53 53 54 54
61 62 62 63 64 62 59 58 59 60 60 60 60 59 57 56 54 54 54 55 56 57 58 58 58 58 58 58 59 59 59 59 59 58 58 58 58 58 57 57 57 57 57 57 56 56 57 58 59 60 60 60 59 59 59 59 58 56 55 54 54 54 55 55 55 56 57 57 58 58 57 58 58 58
68 67 67 68 69 68 66 65 64 64 64 64 64 64 62 61 60 59 59 59 59 60 60 60 60 61 61 61 61 62 63 65 66 66 65 64 64 64 63 62 61 61 62 63 63 63 62 62 62 63 64 64 64 65 65 65 65 65 63 62 61 60 60 60 60 61 61 62 63 63 62 62 62 62
72 73 73 73 73 73 73 71 70 69 69 70 70 70 69 68 67 65 64 63 63 62 63 63 63 63 63 64 65 66 68 69 71 71 71 70 70 69 68 67 66 66 66 67 68 69 70 70 69 68 68 67 68 69 69 70 69 69 69 69 68 68 67 67 66 66 66 67 68 68 68 68 67 67
74 75 75 76 77 77 77 77 76 75 74 75 75 76 76 76 75 73 70 68 67 66 66 66 66 66 66 67 68 70 71 71 73 74 74 75 75 74 74 73 73 73 72 72 73 73 75 76 77 76 75 73 71 71 72 73 73 74 74 73 74 74 75 75 74 72 71 72 72 73 74 74 74 73
80 80 80 81 81 81 81 81 81 80 80 80 80 80 80 80 80 78 76 73 71 71 71 71 72 73 74 75 77 78 79 79 80 81 81 80 79 79 79 79 79 80 79 79 79 79 79 80 81 81 81 80 78 76 75 74 75 76 77 77 77 78 79 80 79 78 77 77 78 78 80 81 80 79
86 86 87 87 86 86 86 86 85 85 85 85 84 84 84 84 84 83 82 80 79 78 79 80 82 83 85 86 86 87 87 86 87 86 86 85 85 85 86 87 87 87 86 85 84 84 84 84 84 85 86 86 86 84 82 79 77 77 78 79 80 81 82 83 83 83 82 82 82 83 84 85 86 85
92 92 92 91 91 90 89 89 88 88 88 88 89 89 89 89 89 89 89 89 87 86 87 89 90 91 92 92 92 92 91 91 90 90 90 92 93 94 94 95 94 94 93 92 91 89 88 88 88 88 89 90 90 90 89 87 84 81 80 81 82 82 83 83 84 85 85 85 85 85 86 87 89 90
100 99 98 97 96 95 94 93 91 91 90 91 93 93 94 94 93 94 94 95 95 95 95 97 98 99 99 99 100 99 99 99 99 98 98 99 99 100 100 100 99 98 97 96 95 94 93 92 91 91 92 92 93 94 94 93 92 90 88 86 85 85 85 85 85 86 86 86 86 86 87 87 89 91
106 106 104 103 101 100 99 98 97 96 96 96 96 98 99 99 99 98 99 99 100 101 102 103 105 105 105 104 104 103 104 104 103 103 102 101 100 100 99 98 98 97 97 96 96 95 94 93 93 93 94 94 95 95 96 96 96 96 95 94 92 91 90 89 88 88 88 89 89 89 89 88 89 90
111 110 110 109 108 106 105 104 103 103 102 102 103 104 104 105 105 105 105 105 105 106 108 109 110 110 109 106 104 103 103 103 102 101 99 99 98 98 98 97 97 97 98 97 96 95 94 93 93 94 94 94 95 95 96 96 97 98 98 98 98 97 96 96 95 95 94 94 94 94 94 94 94 94
114 114 114 113 113 113 112 111 110 109 108 108 108 108 109 109 110 110 111 112 112 113 114 115 115 115 114 112 110 108 107 105 104 104 103 103 104 104 104 103 103 103 103 102 101 100 99 98 98 97 97 97 97 97 97 98 98 98 99 99 99 100 100 100 100 100 100 100 100 100 100 100 100 100
116 116 116 116 116 116 116 116 116 116 115 115 114 114 113 113 113 114 115 116 117 118 118 119 119 119 119 118 117 116 115 113 113 113 113 112 111 111 110 110 109 109 108 108 107 106 106 105 105 104 103 104 104 103 103 103 104 104 105 106 106 107 106 106 106 106 106 106 106 106 107 107 107 107
117 117 117 117 117 117 117 117 117 117 118 118 119 118 118 118 117 117 118 118 119 119 120 120 121 121 120 120 119 119 118 118 117 116 116 115 114 114 113 113 112 112 111 110 110 110 110 110 110 110 109 109 109 110 110 110 111 112 113 114 115 116 116 116 116 116 116 116 116 115 115 115 115 114
119 118 118 117 117 116 116 117 117 118 118 119 119 119 119 119 119 119 120 120 121 122 122 121 121 120 119 119 118 118 117 117 117 117 116 116 116 116 115 115 115 114 114 113 113 113 114 113 114 114 114 114 114 114 115 115 115 116 117 118 118 119 120 120 121 121 122 123 122 122 121 121 121 121
123 122 121 120 119 118 118 117 117 117 118 118 119 119 119 119 119 120 120 121 122 123 123 123 123 122 121 120 120 120 120 119 119 119 119 119 118 118 118 118 118 117 117 117 117 117 117 117 117 118 118 118 118 118 118 119 119 120 120 121 121 122 122 122 123 123 124 125 125 124 123 123 124 124
Wind_Direction
90 88 85 84 84 85 87 87 88 89 89 89 88 88 88 87 86 86 84 83 84 84 83 82 82 81 81 81 81 80 80 79 79 79 79 79 79 79 79 79 78 78 78 78 77 77 77 77 77 77 77 77 77 78 78 79 81 82 83 84 85 88 91 94 98 101 104 107 110 113 116 119 120 122
89 86 83 80 79 80 83 84 84 85 87 87 86 86 86 86 86 85 84 84 84 84 83 82 82 81 81 81 80 80 80 79 79 79 79 78 78 79 79 79 79 79 79 79 78 78 77 77 77 77 77 78 78 78 78 78 79 80 81 82 83 84 85 88 90 93 97 101 104 107 111 113 116 118
89 85 78 72 72 77 83 85 83 84 87 88 86 84 83 84 85 84 84 84 85 85 84 82 80 80 79 78 77 77 77 77 78 78 78 78 78 77 77 78 78 79 79 80 80 79 79 79 78 77 77 77 77 77 78 78 79 79 80 80 81 82 83 84 85 87 89 91 94 97 100 102 105 107
86 81 70 62 67 76 82 84 82 83 88 92 91 88 87 87 87 86 85 86 87 86 84 82 80 76 74 72 72 72 72 73 73 74 74 75 75 75 76 76 76 77 77 78 78 79 80 80 80 79 78 78 77 77 77 77 78 79 79 80 81 81 82 82 83 84 85 87 89 91 94 96 98 99
77 70 60 60 72 81 81 80 80 81 86 92 95 94 94 92 90 87 86 86 86 85 83 81 77 73 71 69 67 66 66 66 67 68 68 69 70 71 71 72 73 74 74 75 75 76 77 78 79 79 79 79 79 78 78 77 77 78 78 79 81 82 83 83 83 84 85 85 87 88 90 92 94 95
68 60 55 68 84 88 84 81 81 83 86 91 94 97 97 95 90 87 86 84 82 80 78 74 71 68 67 66 65 63 61 60 60 61 61 62 63 64 64 65 66 68 69 70 70 71 72 73 74 75 76 77 79 79 79 79 79 78 78 78 79 80 82 83 84 85 85 86 87 88 89 90 91 92
67 64 62 71 85 88 84 82 84 85 87 90 94 98 99 98 95 90 86 83 80 77 74 71 67 65 63 63 62 60 58 56 56 56 57 57 58 58 58 58 59 60 61 62 63 65 66 67 68 69 71 72 74 76 78 78 79 80 79 78 78 78 78 80 82 83 85 86 87 87 88 89 90 90
55 59 61 66 70 72 71 74 80 84 85 86 92 99 101 100 98 94 89 83 78 75 73 69 66 62 60 59 59 57 56 54 53 53 53 53 54 53 53 53 54 54 54 54 55 57 58 59 61 62 63 65 67 69 72 73 75 78 79 79 80 79 79 79 79 80 81 82 83 84 85 87 88 89
35 38 42 46 48 46 45 49 55 64 74 83 94 104 106 103 99 96 90 84 79 74 71 68 64 61 58 56 55 54 52 51 49 48 47 46 46 47 47 48 48 48 48 48 49 49 50 51 52 54 56 58 60 62 64 66 69 71 73 76 78 79 80 81 81 81 81 80 80 81 81 82 84 86
30 29 27 24 23 21 23 29 30 34 45 69 94 108 110 106 100 93 89 84 78 72 67 62 57 55 54 53 51 50 48 46 44 42 40 39 38 39 40 41 41 41 40 40 41 41 42 43 44 45 46 48 51 53 56 58 60 63 65 68 71 74 76 79 81 83 84 84 83 83 82 82 81 82
33 32 32 27 21 14 9 9 8 13 18 25 47 97 109 104 94 83 74 66 57 55 50 46 43 42 42 42 41 40 40 38 37 36 35 33 33 33 33 33 32 32 31 32 32 33 34 35 36 37 38 39 40 42 44 47 50 53 57 60 62 66 69 73 77 81 83 86 87 87 87 86 85 84
58 46 39 33 27 19 12 4 355 352 354 354 349 340 324 313 310 316 328 342 358 8 11 15 18 19 21 23 23 24 25 25 24 24 24 23 23 22 23 23 23 22 21 23 23 23 24 26 27 28 29 30 31 32 33 35 37 40 44 49 53 57 61 66 70 75 79 83 87 89 90 90 90 89
51 45 48 48 33 12 8 10 357 344 343 342 339 333 326 314 302 293 290 291 294 301 309 319 329 339 345 352 358 1 4 5 7 7 6 6 7 7 7 9 10 11 11 12 13 14 14 15 16 18 19 21 21 22 23 25 26 28 30 34 38 42 46 50 55 60 66 72 79 84 88 91 92 92
349 332 326 63 34 355 345 356 346 339 337 333 327 322 317 312 305 298 292 288 288 289 290 293 298 303 309 315 323 329 333 337 340 343 344 345 347 349 350 351 352 354 356 358 359 1 2 3 5 5 7 9 11 11 12 14 16 17 18 20 23 24 26 28 31 36 43 52 61 70 78 85 89 93
315 316 311 333 352 332 310 304 311 323 325 317 314 313 310 305 300 297 295 294 293 292 290 291 293 295 298 303 306 310 313 317 320 323 325 327 329 331 333 334 334 336 339 341 342 343 345 347 350 351 352 353 356 357 359 1 2 4 6 8 10 11 10 10 9 10 12 17 25 36 50 62 73 82
296 296 299 303 307 303 297 284 272 287 299 292 291 297 301 303 302 299 300 300 299 297 295 294 294 295 298 300 303 304 306 308 310 312 315 317 320 322 324 325 326 326 326 328 330 330 331 332 334 335 336 337 338 341 344 346 349 351 352 353 354 354 354 353 353 350 348 348 348 348 352 356 9 32
291 288 292 295 294 288 284 277 268 277 291 287 278 280 288 296 301 304 308 309 306 302 299 298 298 296 296 297 299 300 300 301 304 306 308 310 312 314 316 319 322 324 324 322 323 323 323 324 323 323 324 325 325 328 330 332 334 336 337 338 337 337 336 335 335 332 330 327 325 323 322 319 317 311
295 291 289 290 292 291 287 284 283 285 290 289 286 285 287 291 294 299 309 311 307 305 304 303 301 298 295 295 296 296 295 294 297 300 303 304 306 308 310 312 317 322 324 323 320 319 319 319 319 318 318 320 320 321 321 323 323 323 323 322 322 320 319 318 318 318 318 316 313 312 310 308 306 299
297 295 291 288 289 289 288 288 288 287 287 288 288 288 287 286 286 290 298 302 302 303 304 304 302 300 299 299 297 294 292 293 296 298 298 298 299 303 306 309 313 319 323 323 321 320 317 316 315 315 315 316 317 318 318 317 316 314 312 310 309 308 306 305 305 304 304 303 303 304 303 305 306 300
293 294 293 291 286 283 282 283 284 283 284 284 284 285 285 283 283 285 290 294 297 299 300 301 303 303 302 301 297 292 292 296 300 299 296 295 297 299 302 304 308 314 319 321 321 323 322 319 315 313 312 312 311 311 312 313 312 309 306 303 301 297 295 294 294 294 293 292 291 291 292 297 299 293
289 291 292 291 288 283 279 277 276 277 278 279 279 278 279 282 284 285 287 291 295 298 299 299 301 302 303 301 296 293 294 297 298 296 294 295 298 299 297 296 298 302 307 312 315 318 321 323 320 313 309 309 309 307 306 307 309 307 304 302 298 293 290 288 290 291 290 288 284 282 281 280 275 274
283 286 288 288 285 282 278 274 271 271 272 274 275 274 275 277 281 282 284 288 292 296 297 296 297 299 300 299 297 297 297 296 295 292 290 290 294 296 295 294 292 290 293 298 303 306 310 315 319 315 308 306 306 306 305 307 309 309 307 305 301 297 295 293 293 293 292 289 285 281 278 274 268 266
278 281 283 283 281 278 275 271 268 268 269 270 272 272 273 274 277 280 282 286 289 291 293 292 293 294 295 296 297 297 295 293 292 289 285 284 287 289 288 289 289 287 288 290 292 294 297 302 307 309 307 303 303 305 306 307 308 308 306 305 304 303 302 301 299 297 296 293 291 288 285 281 277 273
275 276 278 278 277 274 271 270 267 265 265 267 269 270 271 272 275 277 279 283 286 288 290 290 289 288 288 290 292 292 291 290 288 285 283 282 283 283 283 284 284 284 284 285 285 287 290 293 297 300 301 299 299 300 301 301 301 300 298 298 301 302 303 303 302 301 302 301 299 296 293 290 287 284
270 272 273 274 273 270 268 267 266 264 262 263 265 267 269 270 272 274 276 279 282 286 289 290 289 288 286 287 288 289 288 287 285 284 284 284 283 282 281 282 282 282 282 281 281 282 284 286 289 292 294 295 294 293 292 293 294 294 292 293 296 298 299 299 299 300 301 300 299 297 294 292 290 288
268 268 269 269 268 266 265 264 263 262 261 260 260 261 263 266 269 272 273 275 279 283 286 288 288 288 287 287 287 287 286 284 284 284 284 283 284 284 282 281 282 283 283 283 283 282 283 284 285 285 286 287 287 287 287 288 289 289 289 290 292 294 295 295 295 295 296 296 295 293 292 291 290 289
269 268 269 268 267 265 264 263 263 261 261 260 259 259 260 262 265 268 271 273 275 279 282 285 287 287 287 287 286 286 286 285 285 285 285 283 283 283 282 281 282 282 283 283 284 285 285 286 286 285 283 282 281 282 284 285 285 284 284 286 289 290 291 291 291 291 291 292 292 292 291 291 290 290
273 270 268 268 268 265 264 264 263 262 261 260 259 258 258 260 263 265 268 269 271 275 280 284 286 287 288 287 287 287 286 284 283 285 286 285 283 281 281 281 282 281 281 282 282 284 285 286 286 286 285 283 282 282 283 283 282 280 281 283 284 284 285 286 286 287 287 287 288 289 290 290 289 289
271 269 268 268 269 268 266 265 264 263 261 260 258 258 258 259 262 265 267 269 272 277 281 284 285 287 288 288 289 288 287 285 283 283 284 286 286 285 284 283 283 282 281 281 281 282 283 283 284 284 284 284 284 284 283 283 282 281 282 282 282 281 281 281 282 283 284 285 285 286 286 287 287 287
264 266 267 268 268 269 268 267 265 264 262 260 258 258 259 260 264 267 269 271 274 278 281 282 283 284 286 287 288 289 289 287 285 283 283 284 286 288 288 287 286 284 283 282 282 282 281 281 280 281 281 282 283 283 283 282 282 281 282 282 282 282 281 280 280 280 281 282 283 284 284 284 284 284
261 264 266 267 268 269 268 266 265 265 264 261 259 259 260 263 266 267 268 270 273 276 278 279 280 282 283 284 286 287 287 287 287 286 285 286 288 289 290 289 287 285 284 283 283 283 281 280 279 279 279 279 280 280 281 281 281 281 281 281 281 282 281 280 280 279 280 280 281 281 281 282 282 282
260 262 265 267 268 269 269 267 266 266 265 264 262 261 262 265 267 267 267 268 270 271 273 274 276 278 279 280 281 282 283 285 286 287 288 288 290 291 291 289 287 284 283 283 283 282 281 281 280 280 279 278 278 278 278 278 279 280 280 280 280 279 279 279 279 279 279 280 280 280 280 279 279 279
260 262 264 265 266 268 268 269 268 267 266 266 264 264 264 266 267 266 266 265 266 267 269 270 272 274 275 277 278 279 281 283 285 286 287 288 288 289 288 288 287 285 284 284 284 283 283 282 282 282 281 280 278 277 277 276 277 278 279 280 280 279 279 279 279 279 278 278 278 278 278 278 278 278
257 259 262 263 265 266 268 269 269 269 269 268 266 265 265 265 266 265 264 263 263 264 265 267 269 271 273 274 276 277 278 279 281 282 283 284 284 284 284 284 285 285 286 286 286 286 284 283 282 282 282 281 279 278 277 277 276 276 277 278 278 279 280 281 281 281 280 279 278 278 278 277 277 277
257 258 260 261 263 264 265 267 268 269 270 270 269 268 266 265 264 263 263 262 261 262 264 266 268 270 272 273 274 275 276 277 278 279 280 280 281 281 281 281 282 284 285 286 286 286 286 285 284 283 282 281 280 279 278 277 276 276 276 276 277 277 278 279 280 280 280 280 279 279 279 279 278 277
257 258 259 261 262 263 264 265 265 266 267 268 269 269 268 266 264 262 262 262 263 264 265 267 269 272 274 275 276 276 276 277 278 279 279 279 280 280 281 282 283 284 285 285 285 285 285 285 285 284 283 282 281 280 279 278 276 275 275 275 276 276 278 279 279 279 279 279 279 279 279 279 280 279
259 259 259 260 261 262 263 264 264 264 264 265 265 266 266 266 265 263 262 262 264 265 266 268 270 272 274 275 276 277 278 279 279 280 280 280 281 282 283 283 284 285 286 286 286 285 285 285 285 285 285 284 283 282 281 280 279 277 276 275 275 276 276 277 278 278 278 278 278 278 278 279 279 280
263 263 263 262 262 261 261 262 263 263 263 263 263 263 264 264 264 264 263 263 264 265 267 269 271 272 273 274 276 277 278 278 279 280 281 281 282 283 284 284 285 286 286 287 287 287 286 286 286 286 286 286 285 285 284 284 283 283 282 280 279 278 277 276 276 276 276 276 277 277 277 277 277 277
265 266 266 266 266 265 264 263 262 262 262 262 262 262 262 263 263 264 264 264 264 265 268 270 272 274 275 276 277 277 278 279 280 280 281 281 282 282 283 284 284 285 285 286 286 286 286 286 286 286 286 286 286 286 286 286 286 286 286 285 284 283 280 278 277 276 275 275 275 275 275 275 275 274
264 265 267 268 268 268 268 267 266 265 264 264 264 263 263 264 264 264 264 265 265 266 267 269 272 274 275 276 276 277 278 279 279 279 279 279 279 280 280 281 281 281 282 282 283 282 282 282 282 282 283 283 283 283 283 283 283 283 283 284 284 283 282 281 280 279 278 277 277 276 275 275 275 274
265 266 267 268 269 269 270 270 270 270 269 268 267 267 266 266 266 267 267 267 268 268 269 270 271 273 274 275 276 277 277 277 277 277 277 277 278 278 279 279 279 279 279 279 279 278 278 278 278 277 277 278 278 277 277 277 277 277 277 278 278 279 279 279 279 279 278 278 278 277 277 276 276 275
265 266 267 268 268 269 270 271 271 271 271 271 271 270 270 270 269 269 269 269 270 270 271 271 272 273 274 275 276 276 277 277 277 277 277 278 278 278 278 279 279 279 278 278 278 278 278 277 277 276 275 275 275 274 273 273 272 273 273 273 274 274 274 274 274 274 274 275 275 275 276 276 275 275
266 266 267 267 268 269 269 270 270 270 271 271 271 271 271 271 271 271 271 271 271 271 271 271 272 272 273 274 274 275 275 275 276 276 277 277 277 278 278 278 278 278 278 278 278 278 278 278 278 278 277 277 276 276 275 274 273 273 273 272 273 273 273 272 272 272 272 272 272 272 272 272 272 272
267 267 267 267 267 268 268 269 269 269 270 270 270 270 270 270 270 271 271 271 271 272 272 272 273 273 274 274 275 275 275 275 276 276 276 277 277 277 278 278 278 278 278 278 278 278 278 278 278 278 278 278 277 277 277 276 276 275 275 275 274 274 274 274 274 273 273 273 272 272 271 271 270 269
268 268 268 268 268 268 268 268 268 268 268 268 269 269 269 269 270 270 270 270 271 271 272 273 273 274 274 275 275 275 275 276 276 276 276 277 277 277 277 277 277 277 278 277 277 277 278 278 278 278 278 277 277 277 277 277 277 276 276 276 276 276 276 275 275 275 275 275 275 274 273 272 271 271
Height
10995 10995 10994 10994 10993 10992 10992 10991 10991 10991 10990 10989 10988 10987 10986 10985 10985 10984 10983 10983 10981 10980 10978 10977 10975 10973 10971 10969 10968 10966 10963 10961 10960 10958 10956 10955 10953 10952 10950 10948 10945 10944 10943 10942 10941 10939 10938 10936 10936 10935 10935 10934 10933 10933 10932 10932 10931 10931 10931 10931 10931 10931 10931 10931 10931 10932 10932 10931 10931 10931 10931 10931 10931 10932
10998 10998 10998 10998 10997 10996 10995 10995 10994 10994 10993 10992 10991 10991 10990 10989 10988 10988 10987 10986 10985 10984 10982 10981 10979 10977 10976 10974 10973 10970 10968 10966 10965 10964 10962 10961 10960 10958 10956 10953 10951 10950 10948 10947 10946 10945 10943 10942 10941 10941 10940 10939 10938 10938 10937 10936 10936 10935 10934 10934 10934 10934 10934 10934 10934 10934 10934 10934 10934 10934 10933 10933 10933 10933
11001 11001 11001 11000 11000 10999 10999 10998 10997 10996 10996 10995 10994 10993 10993 10992 10991 10991 10990 10990 10989 10988 10986 10985 10984 10982 10981 10979 10977 10975 10973 10972 10970 10969 10968 10966 10965 10963 10961 10959 10958 10956 10955 10954 10952 10950 10948 10947 10946 10946 10945 10944 10944 10943 10942 10942 10941 10940 10939 10938 10938 10937 10937 10937 10937 10937 10937 10937 10937 10936 10936 10936 10936 10936
11004 11003 11003 11003 11002 11002 11001 11000 11000 10999 10998 10997 10997 10996 10995 10995 10994 10994 10994 10993 10993 10992 10990 10989 10988 10987 10985 10983 10982 10980 10979 10977 10976 10974 10973 10971 10970 10968 10966 10965 10964 10962 10961 10960 10959 10957 10955 10953 10952 10951 10950 10949 10949 10948 10947 10947 10946 10945 10944 10943 10943 10942 10942 10942 10941 10941 10941 10941 10941 10940 10940 10940 10940 10940
11007 11006 11005 11005 11004 11003 11003 11003 11002 11001 11001 11000 10999 10999 10998 10998 10997 10997 10997 10996 10995 10994 10993 10992 10991 10990 10989 10988 10986 10985 10984 10982 10981 10979 10977 10976 10974 10973 10972 10970 10969 10967 10966 10966 10964 10963 10961 10960 10959 10958 10956 10955 10954 10953 10952 10952 10951 10950 10949 10949 10948 10947 10947 10947 10947 10946 10946 10946 10946 10946 10946 10945 10945 10945
11009 11008 11007 11007 11006 11005 11005 11004 11004 11003 11003 11002 11002 11001 11001 11000 11000 11000 10999 10999 10998 10997 10996 10995 10994 10993 10992 10991 10990 10988 10987 10986 10985 10983 10982 10980 10979 10978 10977 10975 10973 10972 10972 10971 10969 10968 10967 10966 10965 10964 10963 10961 10960 10959 10958 10957 10956 10955 10954 10954 10953 10952 10952 10952 10952 10952 10952 10952 10952 10952 10952 10951 10951 10951
11009 11009 11009 11008 11008 11007 11006 11006 11006 11005 11005 11004 11004 11003 11003 11002 11002 11002 11001 11001 11000 10999 10998 10997 10996 10995 10994 10993 10992 10991 10990 10989 10988 10987 10986 10984 10983 10982 10981 10979 10978 10977 10976 10975 10974 10973 10972 10971 10970 10969 10968 10967 10966 10965 10964 10963 10962 10961 10959 10958 10958 10957 10957 10956 10956 10956 10956 10957 10957 10957 10957 10957 10957 10957
11010 11010 11010 11009 11009 11008 11008 11008 11007 11007 11006 11006 11005 11004 11004 11003 11003 11003 11003 11002 11002 11001 11000 10999 10998 10997 10996 10995 10995 10994 10993 10992 10991 10990 10989 10988 10987 10986 10984 10983 10982 10981 10980 10979 10978 10977 10976 10975 10974 10974 10973 10972 10971 10971 10970 10969 10968 10967 10965 10964 10963 10963 10962 10961 10961 10961 10961 10961 10961 10961 10962 10962 10962 10962
11011 11011 11011 11010 11010 11009 11009 11009 11008 11008 11007 11007 11006 11005 11005 11005 11004 11004 11003 11003 11002 11001 11000 11000 10999 10999 10998 10997 10997 10996 10995 10995 10994 10993 10992 10991 10990 10989 10987 10986 10985 10984 10984 10983 10982 10981 10980 10979 10978 10978 10977 10976 10975 10975 10974 10973 10973 10972 10971 10970 10969 10968 10967 10967 10966 10965 10965 10965 10965 10965 10966 10966 10966 10966
11012 11012 11012 11011 11011 11010 11010 11009 11009 11008 11008 11008 11007 11006 11006 11006 11005 11005 11004 11004 11003 11002 11001 11001 11000 11000 10999 10999 10998 10998 10997 10996 10996 10995 10994 10993 10992 10991 10990 10989 10988 10987 10987 10986 10985 10984 10983 10982 10982 10981 10980 10980 10979 10978 10978 10977 10976 10975 10975 10974 10973 10973 10972 10972 10971 10970 10970 10969 10969 10969 10969 10969 10970 10970
11013 11013 11013 11012 11012 11011 11011 11010 11009 11009 11009 11008 11008 11007 11007 11007 11006 11006 11005 11004 11004 11003 11003 11002 11001 11001 11000 11000 11000 10999 10998 10998 10997 10997 10996 10995 10994 10993 10992 10991 10990 10990 10989 10988 10988 10987 10986 10985 10985 10984 10983 10983 10982 10981 10981 10980 10979 10978 10978 10977 10976 10976 10976 10975 10975 10974 10974 10973 10973 10973 10973 10973 10973 10973
11014 11014 11013 11013 11012 11011 11011 11010 11010 11009 11009 11009 11008 11008 11008 11007 11007 11006 11005 11005 11004 11004 11003 11003 11002 11002 11001 11001 11000 11000 10999 10999 10998 10998 10997 10997 10996 10995 10994 10993 10992 10992 10991 10990 10990 10989 10989 10988 10987 10986 10986 10985 10984 10984 10983 10982 10982 10981 10980 10980 10979 10978 10978 10978 10977 10977 10976 10976 10976 10976 10975 10975 10975 10975
11014 11014 11013 11013 11012 11011 11010 11010 11009 11009 11009 11008 11008 11008 11007 11007 11007 11006 11005 11005 11004 11004 11003 11003 11002 11002 11002 11001 11001 11000 11000 10999 10999 10998 10998 10997 10996 10995 10995 10994 10994 10993 10993 10992 10992 10991 10990 10990 10989 10988 10988 10987 10986 10985 10985 10984 10983 10983 10982 10981 10981 10980 10980 10980 10979 10979 10978 10978 10978 10978 10977 10977 10977 10976
11015 11014 11013 11013 11013 11012 11011 11010 11009 11009 11008 11008 11007 11007 11007 11006 11006 11005 11005 11004 11004 11003 11002 11002 11002 11002 11001 11001 11001 11000 11000 10999 10999 10998 10998 10997 10996 10996 10996 10995 10995 10994 10994 10994 10993 10992 10992 10991 10990 10989 10989 10988 10987 10986 10986 10985 10984 10984 10983 10983 10982 10982 10981 10981 10981 10980 10980 10979 10979 10979 10978 10978 10978 10977
11014 11013 11013 11013 11012 11012 11011 11010 11009 11008 11008 11007 11007 11006 11006 11005 11005 11004 11004 11003 11003 11002 11002 11001 11001 11001 11001 11000 11000 11000 11000 10999 10998 10998 10997 10996 10996 10996 10996 10996 10995 10995 10995 10994 10994 10993 10992 10992 10991 10990 10989 10989 10988 10987 10987 10986 10985 10985 10984 10983 10983 10982 10982 10981 10981 10981 10981 10980 10980 10979 10979 10979 10978 10978
11013 11012 11012 11012 11011 11011 11010 11009 11009 11008 11007 11006 11006 11005 11005 11004 11004 11004 11004 11003 11003 11002 11001 11001 11000 11000 11000 10999 10999 10999 10999 10998 10998 10998 10997 10996 10996 10995 10994 10994 10995 10995 10995 10994 10993 10993 10993 10992 10991 10990 10989 10989 10988 10988 10987 10986 10986 10985 10984 10984 10983 10982 10982 10981 10981 10981 10980 10980 10980 10980 10979 10979 10979 10978
11010 11010 11010 11010 11009 11009 11009 11008 11008 11007 11007 11006 11005 11005 11004 11004 11003 11003 11003 11003 11002 11001 11000 11000 10999 10999 10999 10998 10998 10998 10998 10997 10997 10997 10997 10996 10996 10995 10994 10993 10993 10993 10994 10994 10993 10992 10992 10991 10991 10990 10989 10988 10988 10987 10987 10986 10986 10985 10985 10984 10983 10982 10982 10981 10981 10980 10980 10979 10979 10979 10979 10979 10979 10979
11007 11008 11008 11008 11008 11007 11007 11007 11006 11006 11006 11005 11005 11004 11004 11003 11002 11002 11002 11002 11001 11000 11000 10999 10998 10998 10998 10997 10997 10996 10996 10996 10996 10996 10996 10995 10995 10994 10994 10993 10992 10991 10992 10992 10992 10991 10990 10990 10989 10989 10988 10987 10987 10986 10986 10986 10985 10985 10984 10984 10983 10982 10981 10981 10980 10979 10979 10978 10978 10978 10978 10978 10978 10978
11005 11005 11006 11006 11005 11005 11005 11005 11004 11004 11004 11004 11003 11003 11002 11002 11001 11001 11001 11001 11000 10999 10999 10998 10997 10997 10996 10996 10995 10994 10994 10994 10995 10995 10995 10994 10994 10993 10993 10992 10991 10990 10990 10991 10991 10990 10990 10989 10988 10988 10987 10986 10985 10985 10984 10984 10984 10984 10983 10982 10982 10981 10981 10980 10979 10978 10978 10977 10977 10977 10977 10977 10978 10978
11001 11002 11002 11003 11003 11002 11002 11002 11002 11001 11001 11001 11001 11000 11000 11000 10999 10999 10999 10999 10998 10998 10997 10997 10996 10996 10995 10995 10994 10993 10992 10992 10993 10993 10993 10992 10992 10992 10992 10991 10990 10989 10989 10989 10988 10988 10988 10988 10988 10987 10986 10985 10984 10983 10983 10983 10982 10982 10981 10981 10980 10980 10979 10978 10978 10977 10977 10976 10976 10976 10976 10977 10978 10977
10998 10998 10999 10999 10999 10999 10999 10999 10999 10999 10998 10998 10997 10997 10997 10997 10997 10997 10997 10997 10996 10996 10995 10995 10995 10995 10994 10993 10992 10992 10991 10991 10991 10991 10990 10990 10990 10991 10991 10991 10990 10988 10987 10987 10987 10986 10986 10986 10986 10986 10985 10984 10983 10983 10982 10981 10981 10980 10980 10979 10979 10978 10977 10977 10976 10975 10975 10974 10974 10974 10974 10975 10976 10975
10994 10994 10995 10995 10995 10995 10994 10994 10994 10994 10994 10994 10994 10994 10993 10993 10993 10993 10993 10994 10994 10994 10993 10993 10993 10993 10992 10991 10991 10991 10991 10990 10989 10989 10988 10988 10988 10989 10989 10989 10989 10987 10986 10986 10985 10985 10984 10984 10985 10985 10984 10983 10982 10981 10981 10980 10980 10979 10978 10978 10977 10976 10976 10975 10974 10973 10972 10972 10971 10971 10971 10971 10971 10971
10990 10990 10990 10990 10990 10990 10990 10990 10990 10990 10989 10990 10990 10990 10990 10990 10990 10990 10990 10990 10991 10991 10990 10990 10991 10990 10989 10989 10990 10990 10990 10989 10988 10987 10986 10986 10986 10986 10986 10987 10987 10986 10984 10983 10983 10983 10982 10982 10982 10983 10983 10982 10981 10980 10980 10979 10979 10978 10977 10976 10975 10974 10974 10973 10972 10971 10970 10969 10969 10968 10968 10968 10967 10967
10984 10983 10984 10984 10985 10985 10985 10985 10985 10985 10985 10985 10985 10985 10986 10986 10986 10986 10986 10986 10987 10987 10987 10987 10988 10987 10987 10987 10987 10987 10987 10986 10985 10985 10984 10984 10984 10983 10984 10984 10984 10984 10982 10981 10980 10980 10980 10979 10979 10979 10980 10980 10979 10978 10978 10977 10977 10976 10975 10973 10972 10972 10972 10971 10969 10968 10968 10968 10967 10966 10965 10964 10964 10963
10977 10977 10977 10979 10979 10980 10980 10981 10980 10980 10980 10980 10980 10980 10980 10981 10981 10981 10981 10982 10982 10983 10983 10984 10984 10984 10984 10984 10983 10983 10982 10982 10982 10982 10982 10982 10981 10981 10981 10981 10981 10981 10980 10978 10977 10977 10977 10976 10976 10976 10976 10977 10977 10976 10976 10975 10974 10973 10971 10970 10970 10969 10968 10968 10967 10966 10966 10965 10964 10963 10962 10961 10960 10959
10971 10970 10971 10972 10973 10973 10975 10975 10975 10975 10975 10976 10975 10975 10975 10975 10975 10976 10976 10976 10977 10978 10979 10979 10979 10980 10980 10980 10979 10979 10978 10978 10979 10979 10979 10979 10978 10977 10977 10977 10978 10978 10977 10975 10974 10974 10974 10974 10973 10972 10972 10972 10972 10972 10972 10972 10971 10969 10968 10967 10967 10966 10964 10964 10963 10962 10962 10961 10960 10959 10958 10957 10956 10955
10965 10964 10963 10964 10965 10967 10968 10969 10969 10970 10970 10971 10970 10970 10969 10969 10970 10970 10970 10971 10971 10971 10972 10974 10974 10975 10975 10975 10975 10974 10973 10973 10974 10974 10975 10975 10974 10972 10972 10973 10974 10974 10972 10971 10970 10970 10970 10970 10969 10968 10967 10967 10966 10966 10967 10968 10968 10965 10963 10963 10963 10962 10960 10959 10958 10957 10956 10955 10955 10954 10953 10952 10951 10950
10958 10958 10957 10957 10958 10959 10960 10962 10963 10964 10965 10965 10965 10964 10963 10963 10963 10964 10964 10964 10964 10965 10966 10967 10968 10968 10969 10969 10969 10969 10969 10968 10969 10969 10970 10970 10969 10968 10968 10968 10968 10968 10967 10967 10966 10966 10965 10964 10963 10962 10961 10960 10961 10961 10961 10962 10962 10961 10960 10960 10960 10958 10955 10954 10953 10951 10950 10949 10949 10948 10947 10946 10945 10944
10951 10951 10951 10951 10952 10953 10954 10955 10955 10956 10957 10958 10958 10957 10956 10955 10956 10957 10957 10958 10958 10958 10959 10960 10960 10960 10961 10961 10962 10962 10963 10963 10962 10963 10963 10963 10963 10963 10963 10963 10963 10962 10961 10961 10961 10960 10960 10959 10957 10955 10954 10954 10955 10955 10955 10954 10955 10955 10954 10954 10954 10953 10951 10949 10947 10945 10943 10943 10943 10942 10941 10940 10939 10938
10945 10945 10944 10945 10946 10948 10949 10948 10947 10948 10950 10950 10950 10949 10948 10948 10948 10949 10949 10950 10950 10950 10951 10952 10952 10952 10952 10952 10953 10953 10955 10955 10955 10955 10955 10955 10955 10956 10957 10957 10957 10956 10955 10955 10954 10954 10952 10951 10949 10948 10948 10949 10949 10948 10947 10946 10947 10948 10948 10947 10946 10946 10946 10944 10941 10939 10936 10935 10935 10935 10934 10933 10932 10931
10939 10940 10939 10938 10938 10940 10942 10942 10940 10941 10942 10942 10942 10941 10940 10941 10941 10941 10941 10941 10942 10942 10943 10943 10943 10943 10943 10943 10943 10943 10944 10944 10945 10946 10946 10946 10947 10948 10949 10949 10949 10949 10948 10948 10948 10947 10945 10943 10941 10941 10941 10942 10942 10941 10939 10938 10938 10939 10940 10939 10938 10937 10936 10935 10934 10933 10931 10929 10928 10927 10926 10925 10924 10923
10931 10931 10931 10931 10930 10930 10932 10933 10933 10934 10934 10934 10934 10934 10934 10934 10934 10933 10933 10933 10933 10934 10934 10934 10934 10934 10934 10934 10934 10933 10933 10933 10934 10935 10936 10937 10938 10939 10939 10939 10939 10940 10939 10939 10939 10939 10937 10935 10934 10934 10933 10933 10933 10932 10931 10930 10929 10929 10930 10930 10929 10928 10927 10925 10924 10924 10923 10921 10919 10918 10917 10917 10916 10915
10920 10920 10920 10921 10921 10921 10921 10922 10924 10926 10926 10926 10926 10927 10927 10926 10926 10925 10925 10924 10924 10924 10924 10924 10924 10924 10924 10925 10924 10924 10923 10923 10924 10925 10926 10927 10928 10929 10929 10928 10928 10928 10929 10929 10929 10929 10927 10926 10926 10925 10924 10924 10924 10923 10921 10922 10921 10921 10920 10919 10917 10917 10916 10915 10915 10914 10913 10911 10908 10906 10906 10906 10906 10906
10909 10909 10909 10910 10910 10911 10911 10912 10914 10916 10917 10917 10918 10918 10918 10918 10917 10916 10915 10915 10914 10914 10914 10914 10914 10915 10915 10915 10915 10914 10914 10914 10915 10916 10917 10918 10918 10918 10917 10917 10916 10916 10917 10918 10918 10918 10917 10915 10914 10914 10913 10914 10914 10913 10912 10911 10912 10911 10910 10909 10906 10904 10903 10903 10904 10903 10901 10900 10897 10894 10892 10892 10894 10894
10899 10899 10899 10899 10900 10901 10902 10902 10904 10905 10905 10906 10907 10908 10908 10908 10907 10906 10905 10904 10903 10903 10903 10903 10903 10904 10905 10906 10906 10905 10905 10905 10906 10907 10907 10908 10907 10906 10905 10904 10904 10904 10905 10906 10906 10905 10904 10903 10902 10902 10901 10901 10902 10903 10902 10902 10901 10900 10899 10898 10896 10894 10892 10891 10891 10891 10889 10888 10886 10883 10879 10877 10877 10879
10889 10889 10889 10889 10890 10892 10892 10893 10894 10895 10895 10896 10895 10896 10896 10896 10896 10896 10894 10893 10892 10891 10891 10891 10891 10892 10892 10893 10894 10894 10894 10895 10895 10895 10895 10894 10893 10892 10891 10891 10891 10891 10892 10893 10893 10892 10890 10889 10888 10887 10886 10886 10887 10888 10890 10891 10891 10890 10888 10886 10885 10884 10882 10880 10879 10878 10877 10876 10874 10872 10869 10864 10861 10860
10879 10879 10879 10879 10880 10881 10882 10882 10883 10884 10885 10885 10885 10884 10884 10883 10884 10884 10883 10882 10881 10880 10879 10879 10879 10879 10879 10880 10881 10881 10882 10882 10882 10881 10880 10879 10877 10876 10876 10876 10877 10877 10878 10878 10878 10877 10876 10875 10874 10872 10871 10870 10870 10870 10871 10874 10877 10878 10878 10875 10873 10873 10871 10869 10867 10865 10864 10863 10862 10860 10858 10855 10850 10845
10866 10867 10867 10868 10869 10870 10871 10871 10872 10872 10873 10873 10872 10872 10871 10870 10871 10871 10871 10870 10869 10868 10867 10866 10866 10866 10867 10868 10869 10869 10870 10870 10869 10869 10867 10865 10863 10862 10861 10861 10861 10861 10862 10862 10861 10861 10861 10860 10859 10857 10856 10855 10854 10852 10851 10852 10856 10859 10860 10860 10859 10859 10859 10857 10856 10853 10851 10850 10849 10848 10846 10844 10841 10836
10852 10853 10854 10854 10855 10856 10858 10859 10860 10860 10860 10860 10860 10858 10857 10857 10857 10858 10859 10858 10857 10856 10855 10853 10852 10852 10852 10853 10854 10854 10854 10855 10855 10855 10853 10851 10849 10848 10847 10846 10846 10845 10845 10845 10845 10845 10845 10844 10843 10842 10841 10840 10838 10836 10834 10833 10833 10835 10837 10839 10840 10840 10840 10840 10841 10840 10838 10836 10835 10834 10833 10832 10830 10827
10838 10839 10840 10840 10841 10842 10843 10844 10845 10846 10847 10847 10847 10846 10845 10844 10844 10844 10845 10845 10844 10843 10842 10841 10840 10840 10839 10839 10839 10839 10839 10839 10839 10838 10837 10836 10835 10835 10834 10834 10833 10832 10831 10832 10832 10832 10831 10830 10830 10829 10828 10827 10825 10823 10822 10819 10817 10816 10817 10818 10819 10819 10820 10820 10820 10820 10820 10819 10818 10818 10817 10816 10814 10812
10823 10824 10825 10826 10827 10827 10828 10828 10829 10830 10831 10832 10832 10832 10832 10832 10831 10831 10830 10829 10828 10828 10827 10827 10827 10827 10827 10827 10828 10827 10827 10826 10824 10823 10822 10822 10822 10822 10821 10820 10820 10819 10819 10819 10819 10819 10818 10818 10818 10818 10817 10816 10814 10813 10811 10809 10806 10804 10803 10803 10802 10803 10803 10803 10803 10802 10802 10801 10800 10800 10799 10798 10796 10794
10809 10810 10811 10812 10813 10813 10813 10812 10812 10812 10813 10814 10815 10816 10817 10817 10817 10816 10814 10813 10813 10812 10812 10811 10811 10811 10813 10814 10814 10814 10813 10811 10809 10808 10808 10808 10807 10807 10806 10805 10804 10804 10804 10803 10802 10802 10802 10802 10803 10803 10802 10802 10801 10800 10799 10798 10795 10793 10791 10789 10788 10788 10788 10788 10788 10788 10787 10786 10785 10784 10783 10782 10781 10778
10794 10795 10796 10797 10798 10798 10798 10797 10797 10796 10797 10798 10798 10800 10801 10801 10801 10800 10799 10798 10797 10796 10795 10795 10795 10796 10797 10798 10798 10798 10797 10795 10794 10793 10793 10792 10791 10790 10789 10788 10788 10787 10787 10786 10785 10784 10784 10784 10783 10783 10783 10782 10782 10782 10782 10781 10779 10778 10776 10773 10772 10771 10770 10770 10770 10769 10769 10768 10768 10768 10768 10768 10767 10765
10778 10779 10780 10781 10782 10782 10782 10781 10781 10781 10781 10781 10782 10783 10784 10785 10785 10785 10783 10782 10779 10778 10777 10778 10780 10780 10780 10780 10780 10779 10778 10777 10776 10776 10775 10775 10774 10773 10772 10771 10771 10770 10770 10769 10768 10767 10766 10765 10764 10763 10762 10762 10762 10761 10761 10760 10759 10757 10756 10754 10753 10751 10750 10750 10749 10748 10745 10744 10745 10746 10746 10747 10747 10747
10760 10760 10761 10762 10763 10764 10764 10765 10765 10765 10765 10765 10765 10765 10766 10767 10768 10768 10766 10765 10763 10762 10762 10762 10763 10763 10764 10763 10762 10761 10759 10758 10758 10758 10758 10757 10756 10755 10754 10754 10753 10753 10752 10751 10750 10749 10748 10747 10746 10744 10743 10742 10742 10741 10740 10739 10738 10736 10735 10733 10732 10731 10729 10728 10728 10726 10723 10720 10719 10720 10721 10721 10721 10721